Location: Central Falls
(41.8900°N, 71.3929°W)
Time: 11:19:06
(UTC+00:00)

A-11 Canister half - Pass Details

Date: 12 December 2023
Orbit: 1512 x 1687 km, 47.2° (Epoch: 20 February)

Event Time Altitude Azimuth Distance (km) Brightness Sun altitude
Rises 09:20:48 0° 297° (WNW) 4,831 - -29.4°
Reaches altitude 10° 09:23:56 10° 293° (WNW) 3,865 - -28.8°
Exits shadow 09:31:01 47° 263° (W) 2,097 9.2 -27.5°
Maximum altitude 09:33:33 57° 219° (SW) 1,903 9.2 -27.1°
Drops below altitude 10° 09:43:22 10° 144° (SE) 3,941 11.7 -25.3°
Sets 09:46:37 0° 140° (SE) 4,931 12.4 -24.7°
